Simultaneous Nadir Overpasses (SNOs) Predictions

Prediction of SNOs between GOES-15 and METOP-B Satellite Orbit:

Table of predicted SNOs for the next 14.0 days since TLE Epoch: 4/27/2017
Index Date Time (GOES-15) GOES-15 Lat,Lon METOP-B Lat,Lon Distance(km) Time Diff (sec)
1 04/28/2017 06:32:13 0.07,-135.46 0.04,-135.56 11.69 80
2 04/30/2017 18:30:24 -0.08,-135.45 -0.17,-135.13 36.63 80
3 05/02/2017 06:49:24 0.09,-135.41 -0.90,-139.72 491.94 80
4 05/03/2017 06:31:24 0.09,-135.40 0.23,-134.73 75.87 80
5 05/04/2017 18:50:16 -0.10,-135.40 0.78,-139.29 443.77 80
6 05/05/2017 18:26:56 -0.10,-135.38 -0.35,-134.30 123.62 80
7 05/07/2017 06:45:55 0.10,-135.33 -0.70,-138.89 405.53 80
8 05/08/2017 06:27:56 0.10,-135.32 0.43,-133.90 161.99 80
9 05/09/2017 18:46:47 -0.10,-135.32 0.58,-138.46 358.01 80
10 05/10/2017 18:23:27 -0.10,-135.30 -0.49,-133.46 208.81 80




NCC Satellite Simultaneous Nadir Overpasses (SNOs) Prediction Service
